Location: Bord�res
(43.2000°N, 0.2167°W)
Time: 14:11:37
(UTC+00:00)

ASTEX 1 - Pass Details

Date: 03 March 2021
Orbit: 720 x 743 km, 92.7° (Epoch: 14 April)

Event Time Altitude Azimuth Distance (km) Brightness Sun altitude
Rises 19:21:37 0° 13° (NNE) 3,146 6.6 -17.0°
Reaches altitude 10° 19:24:04 10° 21° (NNE) 2,219 5.8 -17.4°
Maximum altitude 19:28:39 39° 90° (E) 1,077 3.7 -18.3°
Enters shadow 19:30:15 30° 131° (SE) 1,273 4.2 -18.5°
